CHINASAT 2A (ZX 2A)

Last updated on Jan. 20, 2021, 6:22 a.m. UTC

1 38352U 12028A   21019.85369271 -.00000287  00000-0  00000-0 0  9996
2 38352   0.0351 174.3182 0001723 138.4199 212.2633  1.00269794 31580
UTC
Height (km)
Latitude
Longitude
Inclination
Orbital Period
UTC large
Height (km)
Speed (km/s)
/
Latitude / Longitude
Inclination (degrees)
Orbital Period (minutes)
Azimuth
Elevation
Range (km)
Doppler Factor
iOS Compass Heading
iOS Angle

Next 30 passes for location: Hong Kong

Rise time Rise Azimuth (degrees) Set time Set Azimuth (degrees) Duration Max altitude (degrees)

No matching passes for this satellites